www.pogodaiklimat.ru

АРХИВ ПОГОДЫ в Хило

Время (UTC), дата Ветер
(напр.,м/с)
 
Видим.   Явления Облачность Т
(С)
Тd
(С)
f
(%)
Тe
(С)
Тes
(С)
Комфортность

P
(гПа)

Po
(гПа)
Тmin
(С)
Tmax
(С)
R
(мм)
SD
(см)
17:53 20.07 Ю  16 км    2/2 1470 м  +27.2  +18.3  58  +32  +36  очень
душно 
1015.6  1014.5         
18:53 20.07   16 км    ясно  +28.9  +17.8  51  +33  +47  очень
душно 
1015.5  1014.1         
19:53 20.07 В  16 км    5/5 1500 м  +28.9  +20.0  59  +35  +38  очень
душно 
1015.4  1014.1         
20:53 20.07 В  16 км    8/0 2250 м
[средняя] 
+27.8  +20.0  63  +34  +39  очень
душно 
1015.2  1013.8         
21:53 20.07 СВ  16 км    2/0 2250 м
[средняя] 
+28.3  +20.0  61  +35  +46  очень
душно 
1014.8  1013.5         
22:53 20.07 СВ  16 км    ясно  +28.9  +20.6  61  +36  +52  опасность
солнечного
удара 
1014.2  1012.8  +25.6  +29.4     
23:53 20.07 СВ  16 км    ясно  +28.9  +20.6  61  +36  +43  очень
душно 
1013.8  1012.4         
00:53 21.07 СВ  16 км    ясно  +28.9  +20.6  61  +36  +41  очень
душно 
1013.7  1012.4         
01:53 21.07 СВ  16 км    ясно  +28.3  +19.4  59  +34  +39  очень
душно 
1013.6  1012.4         
02:53 21.07 С  16 км    ясно  +27.2  +20.0  65  +33  +36  очень
душно 
1014.0  1012.8         
03:53 21.07 СВ  13 км    10/10 720 м  +26.7  +20.6  69  +33  +33  очень
душно 
1014.6  1013.5         
03:59 21.07 СВ  3 км  сильный дождь  10/10 600 м  +25.6  +22.2  82  +33  +33  очень
душно 
  1013.5         
04:06 21.07 СВ  6 км  слабый дождь, дымка  10/10 660 м  +24.4  +22.2  88  +32  +32  очень
душно 
  1013.5         
04:37 21.07 С  6 км  мгла  10/10 660 м  +24.4  +21.7  85  +31  +31  очень
душно 
  1013.8         
04:53 21.07   6 км  слабый дождь, дымка  10/10 330 м  +23.9  +21.7  88  +31  +31  очень
душно 
1015.3  1014.1  +23.9  +29.4  1.5   
04:58 21.07   5 км  слабый дождь, дымка  10/10 240 м  +23.9  +22.2  90  +31  +31  очень
душно 
  1014.1         
05:10 21.07   5 км  дымка  10/10 240 м  +23.9  +21.7  88  +31  +31  очень
душно 
  1014.1         
05:53 21.07 З  5 км  дымка  10/10 600 м  +23.9  +21.7  88  +31  +31  очень
душно 
1015.6  1014.5         
06:03 21.07 З  10 км  слабый дождь, дымка  10/10 660 м  +23.9  +21.7  88  +31  +31  очень
душно 
  1014.5         
06:44 21.07 СЗ  10 км  дымка  10/10 570 м  +23.9  +21.7  88  +31  +31  очень
душно 
  1014.8         
06:53 21.07 СЗ  10 км  дымка  8/8 510 м  +23.3  +21.7  91  +32  +32  очень
душно 
1016.1  1014.8         
07:46 21.07 ЮЗ  6 км  слабый дождь, дымка  10/10 570 м  +23.3  +21.7  91  +32  +32  очень
душно 
  1014.8         
07:53 21.07 З  8 км  слабый дождь, дымка  10/10 570 м  +22.8  +21.7  94  +31  +31  очень
душно 
1016.0  1014.8      1.5   
08:09 21.07   3 км  сильный дождь, дымка  10/10 570 м  +22.8  +21.7  94  +31  +31  очень
душно 
  1015.2         
08:16 21.07 ЮЗ  3 км  слабый дождь, дымка  10/10 570 м  +22.8  +21.7  94  +31  +31  очень
душно 
  1014.8         
08:25 21.07 ЮЗ  14 км    8/8 690 м  +22.8  +21.1  90  +30  +30  очень
душно 
  1014.5         
08:53 21.07 З  16 км    8/8 630 м  +22.8  +21.1  90  +30  +30  очень
душно 
1015.6  1014.5         
09:05 21.07   3 км  сильный дождь, дымка  10/10 570 м  +22.8  +21.7  94  +31  +31  очень
душно 
  1014.5         
09:38 21.07 З  5 км  слабый дождь, дымка  10/10 510 м  +22.8  +21.1  90  +30  +30  очень
душно 
  1014.1         
09:46 21.07 ЮЗ  16 км    10/10 630 м  +22.8  +21.1  90  +30  +30  очень
душно 
  1014.1         
09:53 21.07 З  16 км    10/10 630 м  +22.8  +21.1  90  +30  +30  очень
душно 
1015.2  1014.1         
10:53 21.07 З  16 км    10/10 1230 м  +22.2  +19.4  84  +28  +28  душно  1014.7  1013.5  +22.2  +23.9  9.7   
11:53 21.07 ЮЗ  16 км    8/8 930 м  +22.2  +19.4  84  +28  +28  душно  1014.3  1013.1         
12:24 21.07 З  11 км  слабый дождь  10/10 810 м  +22.8  +20.6  87  +30  +30  очень
душно 
  1012.8         
12:31 21.07 З  10 км  слабый дождь, дымка  10/10 840 м  +22.8  +20.6  87  +30  +30  очень
душно 
  1012.8         
12:45 21.07 Ю  3 км  сильный дождь, дымка  10/10 690 м  +22.2  +20.6  91  +29  +29  очень
душно 
  1013.1         
12:53 21.07 Ю  2 км  сильный дождь, дымка  10/10 750 м  +22.2  +20.6  91  +29  +29  очень
душно 
1014.2  1012.8         
13:03 21.07 З  5 км  слабый дождь, дымка  10/10 750 м  +22.2  +20.6  91  +29  +29  очень
душно 
  1012.8         
13:53 21.07 З  16 км    ясно  +21.7  +20.0  90  +27  +27  душно  1013.9  1012.4      3.3   
14:53 21.07 ЮЗ  16 км    8/8 1440 м  +21.7  +20.0  90  +27  +27  душно  1014.1  1012.8         
15:53 21.07 ЮЗ  16 км    8/8 750 м  +22.2  +20.0  87  +28  +28  душно  1014.7  1013.5         
16:53 21.07 ЮЗ  16 км    5/5 1500 м  +25.0  +21.1  79  +32  +32  очень
душно 
1015.1  1013.8  +21.7  +25.6  3.3   
17:49 21.07 ЮВ  16 км    8/8 600 м  +26.0  +21.0  74  +33  +34  очень
душно 
  1014.1         
17:53 21.07   16 км    8/8 600 м  +26.1  +21.1  74  +33  +34  очень
душно 
1015.4  1014.1         
18:13 21.07 Ю  16 км    8/8 750 м  +26.1  +21.1  74  +33  +35  очень
душно 
  1014.1         
18:26 21.07 ЮВ  16 км    10/10 720 м  +26.7  +21.1  71  +34  +34  очень
душно 
  1014.1         
18:53 21.07 ЮВ  16 км    10/10 660 м  +26.1  +20.6  72  +33  +33  очень
душно 
1015.5  1014.1         
19:53 21.07 ЮВ  16 км    10/10 840 м  +27.8  +20.6  65  +35  +35  очень
душно 
1015.1  1013.8         

 

Местоположение метеостанции Hilo International Airport: широта 19.7222 долгота -155.0558 высота над уровнем моря 11 м.

В архиве по умолчанию представлена погода в Хило за последние 1-2 суток. Обновление информации о фактической погоде в базе происходит ежечасно! Архивные данные за месяц целиком и за предыдущие месяцы Вы можете получить, выбрав интересующий диапазон дат из раскрывающегося списка и нажав кнопку "Ввод!".

Внимание! Архив погоды МЕТАР в базе сайта в настоящее время начинается c 1 января 2011 г. Нет смысла пытаться выбрать более раннюю дату.

Внимание! Время в таблицах - всемирное. Для получения местного времени необходимо прибавить поправку, которая в Хило равна -10 ч.

Ветер - указаны скорость ветра в м/с и направление, откуда дует ветер: С - северный, СВ - северо-восточный, В - восточный, ЮВ - юго-восточный, Ю - южный, ЮЗ - юго-западный, З - западный, СЗ - северо-западный.
Видимость - горизонтальная дальность видимости в метрах или километрах. При видимости от 1 до 10 км при отсутствии осадков обычно наблюдается дымка, при ухудшении видимости до 1 км и менее - туман. В сухую погоду видимость может ухудшаться дымом, пылью или мглою.
Атмосферные явления - указаны явления, наблюдавшиеся в указанный момент времени.
Облачность - указаны через наклонную черту верхняя и нижняя облачность в баллах и высота нижней границы облаков в метрах. Внимание: облачность, как и прочие метеорологические величины в США измеряются автоматическими метеостанциями. Указанные значения в баллах носят условный характер и показывают процент времени, в течение которого, в среднем, лазерный луч высотомера отражался от облаков обратно.
T - Температура воздуха - температура, измеренная на высоте 2 м над землей.
Td - Температура точки росы - температура, при понижении до которой содержащийся в воздухе водяной пар достигнет насыщения.
f - Относительная влажность воздуха - влажноcть воздуха, измеренная на высоте 2 м над землей.
Te - Эффективная температура - температура, которую ощущает одетый по сезону человек в тени. Характеристика душности погоды. При расчете учитывается влияние влажности воздуха и скорости ветра на теплоощущения человека.
Tes - Эффективная температура на солнце - температура, которую ощущает человек, с поправкой на солнечный нагрев. Характеристика знойности погоды. Зависит от высоты солнца над горизонтом, облачности и скорости ветра. Ночью, в пасмурную погоду, а также при ветре 12 м/с и более поправка равна нулю.
P - Атмосферное давление - приведенное к уровню моря атмосферное давление.
Po - Атмосферное давление - измеренное на уровне метеостанции атмосферное давление.
Tmin - Минимальная температура - минимум температуры воздуха на высоте 2 м над землей.
Tmax - Максимальная температура - максимум температуры воздуха на высоте 2 м над землей.
R - Количество осадков - Количество выпавших осадков за 3 или 6 часов, мм.
SD - Снежный покров - Высота снежного покрова, см.